Location: Dompnac
(44.5644°N, 4.1026°E)
Time: 02:45:18
(UTC+00:00)

Cosmos 2082 Rocket - Pass Details

Date: 25 June 2021
Orbit: 832 x 855 km, 71.0° (Epoch: 03 August)

Event Time Altitude Azimuth Distance (km) Brightness Sun altitude
Exits shadow 01:52:41 - 156° (SSE) 2,640 4.4 -16.2°
Reaches altitude 10° 01:53:23 10° 152° (SSE) 2,433 4.3 -16.1°
Maximum altitude 01:57:39 23° 101° (ESE) 1,702 4.0 -15.7°
Drops below altitude 10° 02:01:56 10° 51° (NE) 2,450 5.8 -15.3°
Sets 02:04:50 0° 38° (NE) 3,391 7.2 -15.0°
